Cloud_Cover
17 100 100 72 92 0 0 0 1 3 20 89 77 57 18 5 13 10 0 14 18 17 19 23 2 0 14 0 0 0 0 0 0 0 0 0 0 0 0 0 11 46 0 0 4 5 47
58 18 95 86 0 0 0 6 78 99 100 100 100 100 28 14 15 14 26 86 100 90 21 18 0 0 0 0 0 0 0 0 0 0 0 0 0 0 0 0 9 49 18 0 0 2 78
92 84 4 0 2 9 84 100 100 100 100 100 100 100 100 100 91 98 100 100 96 100 46 19 0 0 0 0 0 0 0 0 0 0 0 0 0 0 0 0 0 0 7 0 0 2 33
21 78 99 87 100 100 100 100 100 100 100 100 100 100 99 99 100 100 100 90 47 76 100 11 11 0 0 0 0 0 0 0 0 0 0 0 0 0 0 0 0 0 0 2 0 0 2
5 100 100 100 100 100 100 100 100 100 100 100 100 27 100 100 100 84 73 85 58 11 18 66 3 0 0 0 0 0 0 0 0 0 0 0 0 0 0 0 0 0 3 5 0 0 0
71 100 100 100 100 100 100 100 100 100 100 100 15 39 98 100 100 96 13 10 14 8 0 0 0 0 0 0 0 0 0 0 0 0 0 0 0 0 0 0 0 0 4 40 3 0 0
97 100 100 100 100 100 100 100 49 0 0 3 4 99 100 100 100 100 2 0 0 0 0 0 0 0 0 0 0 0 0 0 0 0 0 0 0 0 0 0 0 0 2 9 0 1 2
23 100 87 100 100 94 79 58 0 0 0 6 100 100 100 95 100 10 11 0 0 0 0 0 0 0 0 0 0 0 0 0 0 0 0 0 0 0 0 0 0 0 0 4 0 0 3
64 100 100 100 100 97 6 0 0 0 22 100 100 98 100 100 29 29 5 4 0 1 4 0 0 0 0 0 0 0 0 0 0 0 0 0 0 0 0 0 0 0 0 4 3 1 0
99 100 100 100 62 0 2 0 0 20 100 100 100 100 100 8 48 0 5 0 1 5 36 4 0 0 0 0 0 0 0 0 0 0 0 0 0 0 0 0 0 0 0 0 0 0 0
52 100 100 84 55 0 0 0 22 100 100 100 100 100 96 52 0 0 0 0 0 2 0 8 56 83 6 5 0 0 0 0 0 0 0 0 0 0 0 0 0 29 0 0 0 0 3
21 100 81 86 4 0 0 5 40 100 79 89 100 100 96 30 0 0 0 0 0 0 2 5 5 24 88 27 5 0 0 0 0 0 0 1 0 0 0 0 0 16 0 0 0 0 0
22 18 100 62 0 0 1 16 47 100 92 86 100 88 49 0 0 0 0 0 0 2 0 0 5 5 17 5 6 5 0 0 1 1 1 0 0 0 0 0 0 0 0 0 0 0 0
1 0 100 98 0 0 0 32 58 100 98 100 52 15 1 0 0 0 0 0 33 0 0 0 0 74 49 26 70 74 2 2 4 2 42 0 0 0 0 0 0 0 2 0 0 0 0
0 0 22 20 1 0 0 8 41 74 99 77 37 0 0 0 24 3 2 53 0 4 5 5 49 100 49 100 99 82 32 6 5 10 62 8 6 0 0 0 0 0 3 19 2 2 0
5 1 52 78 5 5 4 5 22 34 38 13 0 0 0 5 44 43 5 5 41 55 95 75 99 89 100 100 95 100 97 36 99 100 100 64 31 0 0 0 0 0 0 1 0 1 0
5 5 7 6 5 41 52 5 24 6 7 1 0 4 0 100 84 100 20 5 6 99 100 100 100 100 100 99 100 96 100 97 100 100 100 100 42 0 0 0 0 0 0 0 2 1 0
5 51 98 35 35 85 60 5 7 5 3 62 0 1 4 17 99 100 49 5 2 5 100 100 100 100 100 100 100 100 100 100 76 100 99 98 86 76 3 0 0 0 0 0 0 4 0
6 96 100 96 75 100 100 65 10 5 5 0 0 0 2 99 36 99 100 48 5 18 20 60 75 100 99 100 100 100 100 99 100 71 100 98 77 100 100 2 0 0 0 0 0 0 7
86 100 100 99 87 100 100 100 100 39 5 9 0 0 0 2 10 30 100 100 65 5 52 76 33 56 77 99 100 100 100 100 97 100 5 65 100 100 76 100 3 0 0 0 0 0 34
100 98 100 100 100 100 100 100 100 37 5 4 0 0 0 0 0 54 7 97 100 100 96 26 100 100 94 96 40 50 65 100 100 100 99 5 89 100 100 98 100 16 0 0 0 0 2
100 100 100 100 100 100 100 100 100 89 39 49 0 0 0 0 0 0 0 8 52 74 99 100 50 100 100 100 100 100 73 5 5 18 5 5 3 5 99 100 100 100 54 0 0 0 0
100 100 100 100 100 100 100 100 100 100 32 24 3 0 0 0 0 0 0 0 0 5 15 5 67 82 100 100 100 100 100 52 3 0 0 0 2 5 6 100 100 100 100 100 100 100 4
100 100 100 100 100 100 100 100 100 100 97 54 2 0 0 4 2 0 0 0 0 4 3 4 20 24 42 95 100 100 100 100 84 6 0 0 0 0 0 3 94 99 100 100 83 73 31
100 100 100 100 100 100 100 100 100 100 100 68 4 0 0 2 5 0 0 0 0 3 5 5 4 3 7 56 13 70 100 100 100 100 78 5 0 0 0 0 0 2 46 57 26 13 5
100 100 100 100 100 100 100 100 100 100 100 9 5 1 0 0 4 1 0 0 0 0 4 5 0 0 1 5 5 41 40 64 50 96 100 100 84 18 5 4 0 0 0 0 5 5 1
100 100 100 100 100 100 100 100 100 100 100 78 5 1 0 0 0 0 0 1 0 0 0 1 5 4 0 4 23 41 28 5 10 5 6 43 53 29 27 5 5 2 0 0 0 5 5
100 100 100 100 100 100 100 100 100 100 100 90 5 2 0 0 0 0 0 0 0 1 0 0 2 0 0 2 4 5 5 7 6 12 5 5 5 10 8 63 21 4 0 2 1 0 0
100 100 100 100 100 100 100 100 100 100 100 100 20 0 0 0 0 0 5 5 4 0 0 0 0 0 0 0 1 5 5 5 5 5 2 5 9 66 8 19 2 4 5 0 0 0 0